Location: Choisy
(48.7685°N, 2.4187°E)
Time: 20:21:11
(UTC+00:00)

ATLAS 3B R/B - Pass Details

Date: 29 May 2022
Orbit: 976 x 1218 km, 63.8° (Epoch: 20 June)

Event Time Altitude Azimuth Distance (km) Brightness Sun altitude
Rises 22:16:23 0° 315° (NW) 3,978 7.0 -16.6°
Reaches altitude 10° 22:19:15 10° 308° (NW) 3,049 6.0 -16.8°
Maximum altitude 22:25:45 36° 245° (WSW) 1,785 3.8 -17.2°
Enters shadow 22:30:15 19° 193° (SSW) 2,500 4.1 -17.4°
